This is the latest recevied weather packets stored in our database for station/object IU2RPR-3. If no packets are shown the sender has not sent any weather packets the latest 10 day(s).
| Time | Temp. | Humidity | Pressure | Rain* | Wind** | Luminosity | Snow |
|---|---|---|---|---|---|---|---|
| 1777560594 | 23.33° C | 34% | 1025.1 hPa | - | - | - | - |
| 1777558793 | 26.11° C | 31% | 1025.1 hPa | - | - | - | - |
| 1777556992 | 23.89° C | 32% | 1025.5 hPa | - | - | - | - |
| 1777555190 | 23.89° C | 34% | 1025.8 hPa | - | - | - | - |
| 1777553387 | 21.67° C | 36% | 1026.3 hPa | - | - | - | - |
| 1777551586 | 22.22° C | 33% | 1026.5 hPa | - | - | - | - |
| 1777549785 | 20.56° C | 35% | 1027 hPa | - | - | - | - |
| 1777547983 | 19.44° C | 37% | 1027.3 hPa | - | - | - | - |
| 1777546182 | 18.89° C | 38% | 1027.5 hPa | - | - | - | - |
| 1777544381 | 17.78° C | 39% | 1027.5 hPa | - | - | - | - |
| 1777542580 | 16.11° C | 41% | 1027.7 hPa | - | - | - | - |
| 1777540778 | 15.56° C | 45% | 1027.8 hPa | - | - | - | - |
| 1777538977 | 15° C | 49% | 1027.6 hPa | - | - | - | - |
| 1777537176 | 15° C | 49% | 1027.2 hPa | - | - | - | - |
| 1777535375 | 15° C | 58% | 1026.9 hPa | - | - | - | - |
| 1777533573 | 14.44° C | 58% | 1026.9 hPa | - | - | - | - |
| 1777531772 | 13.89° C | 64% | 1026.6 hPa | - | - | - | - |
| 1777529971 | 13.33° C | 69% | 1026.5 hPa | - | - | - | - |
| 1777528170 | 13.33° C | 74% | 1026.2 hPa | - | - | - | - |
| 1777526369 | 13.89° C | 78% | 1025.8 hPa | - | - | - | - |
| 1777524567 | 13.33° C | 80% | 1025.3 hPa | - | - | - | - |
| 1777522766 | 13.89° C | 81% | 1025 hPa | - | - | - | - |
| 1777520965 | 13.33° C | 83% | 1024.7 hPa | - | - | - | - |
| 1777519164 | 13.33° C | 83% | 1024.8 hPa | - | - | - | - |
| 1777517362 | 13.33° C | 87% | 1024.6 hPa | - | - | - | - |
* Rain since midnight (hover to see other rain measurements)
** Current wind speed in m/s (hover to see current wind gust speed)